CW9463 Weather Reports


time (UTC)temp
C
wind
direction
speed
KPH
gust
KPH
rain 1hr
cm
rain 24hr
cm
rain mn
cm
humidity
%
barometer
mb
20260906123006 19 142 0.0 0.0 0.00 0.00 0.00 96 1017.3
20260906121505 18 142 0.0 0.0 0.00 0.00 0.00 96 1017.0
20260906120106 18 142 0.0 0.0 0.00 0.00 0.00 95 1016.9
20260906114604 18 142 0.0 0.0 0.00 0.00 0.00 95 1016.6
20260906113048 18 142 0.0 0.0 0.00 0.00 0.00 95 1016.3
20260906111544 18 142 0.0 0.0 0.00 0.00 0.00 95 1016.3
20260906110038 18 142 0.0 0.0 0.00 0.00 0.00 95 1016.1
20260906104534 18 142 0.0 0.0 0.00 0.00 0.00 95 1015.8
20260906103032 19 142 0.0 0.0 0.00 0.00 0.00 95 1015.6
20260906101528 19 143 0.0 0.0 0.00 0.00 0.00 94 1015.5
20260906100026 19 142 0.0 0.0 0.00 0.00 0.00 94 1015.6
20260906094518 19 142 0.0 0.0 0.00 0.00 0.00 94 1015.3
20260906093022 19 142 0.0 0.0 0.00 0.00 0.00 94 1015.3
20260906091517 19 142 0.0 0.0 0.00 0.00 0.00 94 1015.4
20260906090011 20 142 0.0 0.0 0.00 0.00 0.00 94 1015.1
20260906084508 20 142 0.0 0.0 0.00 0.00 0.00 94 1015.3
20260906083011 20 142 0.0 0.0 0.00 0.00 0.00 93 1015.1
20260906081507 20 142 0.0 0.0 0.00 0.00 0.00 93 1015.2
20260906074553 20 142 0.0 0.0 0.00 0.00 0.00 92 1015.4
20260906073046 20 142 0.0 0.0 0.00 0.00 0.00 92 1015.5
20260906071542 21 142 0.0 0.0 0.00 0.00 0.00 91 1015.4
20260906070041 21 142 0.0 0.0 0.00 0.00 0.00 91 1015.6
20260906064540 21 142 0.0 0.0 0.00 0.00 0.00 91 1015.5
20260906063039 21 142 0.0 0.0 0.00 0.00 0.00 92 1015.6
20260906061539 21 142 0.0 0.0 0.00 0.00 0.00 91 1015.6
20260906060038 21 142 0.0 0.0 0.00 0.00 0.00 91 1015.6
20260906054541 21 142 0.0 0.0 0.00 0.00 0.00 90 1015.3
20260906053041 21 142 0.0 0.0 0.00 0.00 0.00 89 1015.3
20260906051536 22 142 0.0 0.0 0.00 0.00 0.00 88 1015.2
20260906050042 22 142 0.0 0.0 0.00 0.00 0.00 88 1015.1
20260906044533 22 202 0.0 0.0 0.00 0.00 0.00 88 1015.1
20260906043031 22 202 0.0 0.0 0.00 0.00 0.00 88 1014.8
20260906041527 22 202 0.0 0.0 0.00 0.00 0.00 88 1014.7
20260906040025 22 202 0.0 0.0 0.00 0.00 0.00 88 1014.4
20260906034525 22 189 0.0 0.0 0.00 0.00 0.00 87 1014.2
20260906033030 22 189 0.0 1.6 0.00 0.00 0.00 87 1014.3
20260906031532 22 189 0.0 1.6 0.00 0.00 0.00 87 1014.4
20260906030030 22 189 0.0 1.6 0.00 0.00 0.00 87 1014.2
20260906024529 22 14 0.0 6.4 0.00 0.00 0.00 87 1014.2
20260906023027 22 122 0.0 1.6 0.00 0.00 0.00 87 1014.3
20260906021524 22 285 0.0 3.2 0.00 0.00 0.00 87 1014.4
20260906020024 22 41 0.0 3.2 0.00 0.00 0.00 87 1014.2
20260906014527 22 173 0.0 1.6 0.00 0.00 0.00 87 1014.3
20260906013030 22 333 0.0 1.6 0.00 0.00 0.00 87 1014.2
20260906011519 22 117 0.0 1.6 0.00 0.00 0.00 87 1014.1
20260906010019 22 53 0.0 3.2 0.00 0.00 0.00 86 1014.2
20260906004516 23 103 0.0 1.6 0.00 0.00 0.00 86 1014.2
20260906003018 23 245 0.0 4.8 0.00 0.00 0.00 85 1013.8
20260906001518 23 103 0.0 1.6 0.00 0.00 0.00 84 1013.6
20260906000033 24 69 0.0 4.8 0.00 0.00 0.00 83 1013.2
20260905234508 25 54 0.0 3.2 0.00 0.00 0.00 82 1012.9
20260905233006 25 122 0.0 3.2 0.00 0.00 0.00 82 1012.9
20260905231506 25 122 0.0 0.0 0.00 0.00 0.00 81 1013.1
20260905230005 26 109 0.0 3.2 0.00 0.00 0.00 81 1012.7
20260905224505 26 109 0.0 0.0 0.00 0.00 0.00 79 1012.4
20260905223008 26 109 0.0 3.2 0.00 0.00 0.00 78 1012.5
20260905221504 26 30 0.0 0.0 0.00 0.00 0.00 79 1012.4
20260905220003 26 30 0.0 0.0 0.00 0.00 0.00 79 1012.3
20260905214501 27 28 0.0 6.4 0.00 0.00 0.00 81 1012.6
20260905213100 27 91 0.0 1.6 0.00 0.00 0.00 78 1012.5
20260905211556 27 192 0.0 3.2 0.00 0.00 0.00 79 1012.4
20260905210151 27 345 0.0 0.0 0.00 0.00 0.00 78 1012.6
20260905204555 27 355 0.0 1.6 0.00 0.00 0.00 79 1012.7
20260905203045 28 339 0.0 3.2 0.00 0.00 0.00 77 1012.8
20260905201544 28 57 0.0 4.8 0.00 0.00 0.00 78 1012.6
20260905200043 28 49 0.0 3.2 0.00 0.00 0.00 79 1012.6
20260905194542 28 103 0.0 1.6 0.00 0.00 0.00 78 1012.5
20260905193045 28 290 0.0 3.2 0.00 0.00 0.00 78 1012.5
20260905191644 29 59 0.0 3.2 0.00 0.00 0.00 77 1012.5
20260905190044 29 171 0.0 4.8 0.00 0.00 0.00 77 1012.5
20260905184606 29 78 0.0 1.6 0.00 0.00 0.00 78 1012.6
20260905183046 30 164 0.0 1.6 0.00 0.00 0.00 77 1012.7
20260905181546 30 22 0.0 4.8 0.00 0.00 0.00 76 1012.6
20260905180036 31 302 0.0 1.6 0.00 0.00 0.00 75 1012.6
20260905174532 31 355 0.0 1.6 0.00 0.00 0.00 73 1012.5
20260905173033 31 261 0.0 3.2 0.00 0.00 0.00 76 1012.5
20260905171529 31 45 0.0 3.2 0.00 0.00 0.00 76 1012.5
20260905170026 31 15 0.0 1.6 0.00 0.00 0.00 77 1012.8
20260905164526 30 269 0.0 3.2 0.00 0.00 0.00 76 1012.8
20260905163030 30 141 0.0 4.8 0.00 0.00 0.00 78 1012.8
20260905161529 29 218 0.0 1.6 0.00 0.00 0.00 81 1012.8
20260905160029 28 35 0.0 1.6 0.00 0.00 0.00 80 1013.0
20260905154521 28 252 0.0 1.6 0.00 0.00 0.00 83 1012.7
20260905153016 27 5 0.0 1.6 0.00 0.00 0.00 86 1012.8
20260905151512 26 155 0.0 1.6 0.00 0.00 0.00 88 1012.7
20260905150006 25 253 0.0 1.6 0.00 0.00 0.00 90 1012.6
20260905144506 25 244 0.0 1.6 0.00 0.00 0.00 90 1012.4
20260905143004 25 213 0.0 1.6 0.00 0.00 0.00 92 1012.5
20260905141503 24 38 0.0 3.2 0.00 0.00 0.00 94 1012.3
20260905140004 24 138 0.0 1.6 0.00 0.00 0.00 95 1012.1
20260905134504 24 297 0.0 0.0 0.00 0.00 0.00 96 1011.9
20260905133001 24 150 0.0 0.0 0.00 0.00 0.00 96 1012.0
20260905131503 24 150 0.0 0.0 0.00 0.00 0.00 96 1012.4
20260905130059 24 150 0.0 0.0 0.00 0.00 0.00 96 1011.7
20260905124557 23 150 0.0 0.0 0.00 0.00 0.00 96 1011.6